QPF
0.00 0.00 0.00 0.00 0.00 0.00 0.00 0.00 0.00 0.00 0.00 0.01 0.01 0.01 0.01 0.01 0.01 0.01 0.01 0.01 0.01 0.01 0.01 0.01 0.03 0.04 0.03 0.01 0.01 0.01 0.01 0.00 0.00 0.00 0.00 0.01 0.01 0.01 0.01 0.01 0.02 0.03 0.05
0.00 0.00 0.00 0.00 0.00 0.00 0.00 0.00 0.00 0.00 0.00 0.00 0.01 0.01 0.01 0.01 0.01 0.01 0.01 0.01 0.01 0.01 0.01 0.01 0.01 0.03 0.04 0.04 0.02 0.01 0.01 0.00 0.00 0.00 0.00 0.00 0.00 0.01 0.01 0.01 0.02 0.02 0.04
0.00 0.00 0.00 0.00 0.00 0.00 0.00 0.00 0.00 0.00 0.00 0.00 0.00 0.01 0.01 0.01 0.01 0.02 0.01 0.01 0.01 0.02 0.02 0.01 0.01 0.01 0.02 0.03 0.04 0.03 0.01 0.00 0.00 0.00 0.00 0.00 0.00 0.00 0.00 0.01 0.02 0.02 0.02
0.00 0.00 0.00 0.00 0.00 0.00 0.00 0.00 0.00 0.00 0.00 0.00 0.00 0.00 0.01 0.01 0.01 0.01 0.01 0.01 0.01 0.01 0.02 0.02 0.01 0.01 0.01 0.01 0.02 0.02 0.02 0.02 0.01 0.00 0.00 0.00 0.00 0.01 0.00 0.00 0.01 0.02 0.02
0.00 0.00 0.00 0.00 0.00 0.00 0.00 0.00 0.00 0.00 0.00 0.00 0.00 0.00 0.00 0.01 0.00 0.01 0.01 0.01 0.01 0.01 0.02 0.02 0.02 0.01 0.01 0.01 0.01 0.01 0.01 0.01 0.01 0.01 0.00 0.00 0.00 0.00 0.00 0.00 0.00 0.01 0.01
0.00 0.00 0.00 0.00 0.00 0.00 0.00 0.00 0.00 0.00 0.00 0.00 0.00 0.00 0.01 0.01 0.01 0.01 0.01 0.01 0.01 0.01 0.01 0.02 0.01 0.01 0.01 0.01 0.01 0.01 0.01 0.01 0.00 0.00 0.01 0.01 0.01 0.00 0.00 0.00 0.00 0.00 0.00
0.00 0.00 0.00 0.00 0.00 0.00 0.00 0.00 0.00 0.00 0.00 0.00 0.00 0.00 0.00 0.01 0.02 0.02 0.01 0.02 0.02 0.01 0.01 0.01 0.01 0.01 0.01 0.01 0.01 0.01 0.01 0.01 0.01 0.00 0.00 0.00 0.00 0.00 0.00 0.01 0.00 0.00 0.00
0.00 0.00 0.00 0.00 0.00 0.00 0.00 0.00 0.00 0.00 0.00 0.00 0.00 0.00 0.00 0.01 0.02 0.02 0.02 0.02 0.02 0.01 0.01 0.01 0.01 0.01 0.01 0.01 0.01 0.01 0.01 0.01 0.01 0.01 0.00 0.00 0.00 0.00 0.01 0.01 0.01 0.00 0.00
0.02 0.02 0.01 0.01 0.00 0.00 0.00 0.00 0.00 0.00 0.00 0.00 0.00 0.00 0.01 0.01 0.02 0.03 0.03 0.02 0.02 0.02 0.02 0.01 0.01 0.01 0.01 0.01 0.01 0.01 0.01 0.01 0.01 0.01 0.00 0.00 0.00 0.00 0.00 0.00 0.01 0.01 0.01
0.02 0.02 0.02 0.01 0.01 0.01 0.01 0.01 0.01 0.01 0.01 0.01 0.01 0.01 0.01 0.01 0.02 0.03 0.03 0.02 0.03 0.03 0.02 0.02 0.01 0.01 0.01 0.01 0.01 0.01 0.01 0.01 0.01 0.00 0.00 0.00 0.00 0.00 0.01 0.00 0.00 0.01 0.01
0.02 0.01 0.01 0.01 0.01 0.02 0.02 0.02 0.02 0.02 0.02 0.01 0.01 0.02 0.01 0.01 0.02 0.02 0.02 0.02 0.03 0.03 0.03 0.02 0.01 0.01 0.01 0.01 0.01 0.01 0.01 0.01 0.01 0.00 0.00 0.00 0.00 0.01 0.01 0.01 0.01 0.01 0.01
0.02 0.02 0.01 0.01 0.01 0.02 0.03 0.04 0.04 0.04 0.03 0.02 0.02 0.02 0.02 0.02 0.03 0.03 0.03 0.03 0.03 0.04 0.04 0.03 0.03 0.02 0.01 0.01 0.01 0.01 0.01 0.01 0.01 0.01 0.01 0.01 0.01 0.01 0.01 0.00 0.00 0.00 0.00
0.02 0.02 0.02 0.02 0.02 0.02 0.03 0.05 0.05 0.04 0.03 0.03 0.02 0.02 0.03 0.03 0.04 0.04 0.04 0.04 0.04 0.04 0.04 0.05 0.04 0.03 0.02 0.02 0.02 0.01 0.01 0.01 0.01 0.01 0.01 0.01 0.01 0.01 0.01 0.01 0.01 0.01 0.01
0.03 0.03 0.03 0.03 0.03 0.03 0.04 0.05 0.05 0.05 0.03 0.03 0.02 0.02 0.02 0.02 0.03 0.03 0.03 0.04 0.04 0.04 0.04 0.04 0.04 0.03 0.03 0.03 0.03 0.03 0.02 0.01 0.01 0.01 0.01 0.01 0.01 0.01 0.01 0.01 0.01 0.01 0.01
0.03 0.03 0.04 0.04 0.04 0.04 0.05 0.05 0.04 0.04 0.04 0.03 0.02 0.02 0.02 0.02 0.03 0.03 0.03 0.03 0.04 0.04 0.04 0.04 0.04 0.03 0.03 0.04 0.03 0.03 0.03 0.02 0.02 0.02 0.01 0.01 0.02 0.02 0.01 0.01 0.01 0.01 0.00
0.03 0.03 0.03 0.03 0.04 0.05 0.06 0.06 0.05 0.04 0.04 0.03 0.03 0.02 0.03 0.03 0.03 0.04 0.04 0.03 0.04 0.05 0.05 0.04 0.04 0.03 0.03 0.04 0.04 0.04 0.03 0.02 0.02 0.02 0.02 0.02 0.02 0.02 0.01 0.01 0.01 0.01 0.01
0.04 0.04 0.04 0.04 0.04 0.05 0.06 0.07 0.06 0.04 0.04 0.04 0.03 0.03 0.03 0.03 0.03 0.03 0.04 0.04 0.04 0.05 0.06 0.05 0.05 0.04 0.03 0.03 0.04 0.04 0.03 0.02 0.02 0.02 0.02 0.02 0.02 0.01 0.01 0.01 0.01 0.01 0.01
0.04 0.04 0.04 0.04 0.05 0.05 0.06 0.08 0.07 0.05 0.04 0.05 0.06 0.04 0.03 0.03 0.03 0.03 0.04 0.05 0.04 0.04 0.05 0.05 0.05 0.04 0.03 0.03 0.03 0.03 0.03 0.02 0.02 0.02 0.02 0.01 0.01 0.01 0.02 0.02 0.01 0.01 0.01
0.04 0.05 0.05 0.06 0.06 0.05 0.05 0.07 0.08 0.05 0.04 0.05 0.07 0.07 0.04 0.03 0.03 0.04 0.04 0.04 0.05 0.05 0.04 0.05 0.05 0.04 0.03 0.03 0.03 0.03 0.03 0.02 0.02 0.01 0.01 0.01 0.01 0.01 0.02 0.02 0.02 0.02 0.01
0.04 0.04 0.04 0.05 0.05 0.05 0.06 0.07 0.07 0.06 0.06 0.06 0.06 0.08 0.06 0.04 0.04 0.05 0.06 0.05 0.05 0.06 0.06 0.05 0.05 0.05 0.04 0.03 0.03 0.03 0.03 0.02 0.01 0.01 0.01 0.02 0.02 0.02 0.02 0.02 0.02 0.02 0.02
0.05 0.05 0.04 0.05 0.06 0.06 0.06 0.06 0.06 0.07 0.08 0.08 0.07 0.09 0.07 0.06 0.06 0.06 0.07 0.06 0.05 0.05 0.05 0.06 0.06 0.05 0.05 0.05 0.04 0.04 0.03 0.02 0.02 0.01 0.01 0.01 0.02 0.02 0.02 0.02 0.01 0.01 0.02
0.05 0.05 0.05 0.06 0.05 0.05 0.05 0.05 0.05 0.06 0.07 0.08 0.08 0.10 0.08 0.07 0.07 0.06 0.07 0.07 0.06 0.05 0.04 0.05 0.05 0.05 0.05 0.04 0.04 0.05 0.05 0.04 0.03 0.02 0.02 0.02 0.02 0.02 0.02 0.02 0.02 0.03 0.02
0.05 0.05 0.05 0.06 0.05 0.05 0.04 0.05 0.05 0.05 0.06 0.06 0.07 0.08 0.08 0.08 0.07 0.07 0.06 0.06 0.06 0.06 0.05 0.05 0.04 0.04 0.04 0.04 0.04 0.04 0.04 0.05 0.04 0.03 0.03 0.03 0.02 0.02 0.02 0.02 0.02 0.03 0.02
0.04 0.05 0.05 0.05 0.05 0.05 0.04 0.05 0.05 0.05 0.06 0.06 0.06 0.06 0.06 0.07 0.06 0.06 0.07 0.07 0.07 0.06 0.05 0.05 0.05 0.05 0.04 0.04 0.04 0.04 0.04 0.04 0.04 0.04 0.03 0.03 0.02 0.02 0.02 0.02 0.02 0.03 0.02
0.04 0.04 0.04 0.04 0.05 0.05 0.05 0.05 0.05 0.05 0.05 0.05 0.05 0.05 0.05 0.05 0.05 0.06 0.07 0.07 0.07 0.07 0.06 0.05 0.05 0.05 0.05 0.04 0.03 0.03 0.04 0.04 0.04 0.04 0.03 0.03 0.02 0.02 0.02 0.02 0.02 0.03 0.03
0.03 0.04 0.04 0.04 0.04 0.03 0.03 0.04 0.04 0.04 0.04 0.05 0.05 0.05 0.05 0.05 0.06 0.07 0.07 0.08 0.07 0.07 0.07 0.06 0.06 0.05 0.05 0.04 0.04 0.04 0.04 0.04 0.04 0.04 0.04 0.04 0.03 0.03 0.02 0.02 0.02 0.03 0.04
MSLP
1007.04 1007.39 1007.80 1008.24 1008.70 1009.18 1009.67 1010.20 1010.78 1011.39 1012.05 1012.72 1013.39 1014.03 1014.61 1015.13 1015.58 1015.99 1016.37 1016.74 1017.13 1017.55 1018.01 1018.50 1019.03 1019.58 1020.15 1020.76 1021.41 1022.11 1022.87 1023.67 1024.50 1025.33 1026.11 1026.81 1027.38 1027.79 1028.02 1028.09 1028.03 1027.88 1027.70
1006.34 1006.71 1007.14 1007.60 1008.09 1008.60 1009.14 1009.72 1010.36 1011.06 1011.80 1012.55 1013.29 1013.97 1014.59 1015.12 1015.57 1015.96 1016.33 1016.69 1017.08 1017.51 1017.97 1018.47 1018.99 1019.52 1020.07 1020.63 1021.23 1021.88 1022.59 1023.38 1024.23 1025.11 1025.97 1026.78 1027.46 1028.00 1028.34 1028.50 1028.51 1028.40 1028.22
1005.57 1005.96 1006.41 1006.90 1007.42 1007.97 1008.56 1009.20 1009.90 1010.67 1011.48 1012.30 1013.09 1013.82 1014.46 1015.01 1015.47 1015.87 1016.24 1016.61 1017.01 1017.44 1017.92 1018.42 1018.93 1019.44 1019.95 1020.46 1020.99 1021.58 1022.23 1022.99 1023.83 1024.73 1025.65 1026.54 1027.33 1027.97 1028.43 1028.70 1028.79 1028.74 1028.61
1004.78 1005.18 1005.65 1006.17 1006.73 1007.31 1007.94 1008.64 1009.40 1010.22 1011.09 1011.96 1012.80 1013.56 1014.23 1014.80 1015.28 1015.69 1016.08 1016.46 1016.88 1017.34 1017.83 1018.34 1018.84 1019.33 1019.80 1020.25 1020.73 1021.25 1021.85 1022.55 1023.37 1024.26 1025.21 1026.14 1026.99 1027.72 1028.27 1028.64 1028.82 1028.85 1028.78
1004.04 1004.44 1004.92 1005.46 1006.04 1006.66 1007.33 1008.07 1008.88 1009.75 1010.66 1011.58 1012.45 1013.24 1013.94 1014.52 1015.02 1015.45 1015.86 1016.27 1016.71 1017.18 1017.69 1018.21 1018.71 1019.19 1019.63 1020.05 1020.48 1020.95 1021.49 1022.15 1022.91 1023.78 1024.70 1025.64 1026.51 1027.28 1027.89 1028.33 1028.60 1028.72 1028.73
1003.44 1003.83 1004.30 1004.84 1005.43 1006.07 1006.77 1007.54 1008.39 1009.30 1010.24 1011.18 1012.08 1012.89 1013.61 1014.22 1014.73 1015.18 1015.60 1016.03 1016.49 1016.99 1017.51 1018.04 1018.55 1019.03 1019.46 1019.87 1020.28 1020.71 1021.22 1021.82 1022.53 1023.33 1024.21 1025.09 1025.95 1026.71 1027.34 1027.82 1028.15 1028.35 1028.44
1003.10 1003.45 1003.90 1004.41 1004.98 1005.62 1006.32 1007.10 1007.96 1008.89 1009.85 1010.81 1011.73 1012.56 1013.29 1013.92 1014.45 1014.91 1015.35 1015.79 1016.26 1016.77 1017.30 1017.84 1018.36 1018.86 1019.31 1019.72 1020.13 1020.55 1021.03 1021.59 1022.23 1022.97 1023.76 1024.57 1025.35 1026.07 1026.68 1027.17 1027.54 1027.81 1027.99
1003.12 1003.41 1003.79 1004.24 1004.76 1005.36 1006.03 1006.79 1007.65 1008.57 1009.54 1010.50 1011.43 1012.28 1013.02 1013.66 1014.20 1014.68 1015.12 1015.57 1016.04 1016.54 1017.07 1017.62 1018.16 1018.68 1019.16 1019.60 1020.03 1020.46 1020.93 1021.45 1022.03 1022.68 1023.38 1024.09 1024.78 1025.42 1025.99 1026.47 1026.87 1027.19 1027.44
1003.57 1003.76 1004.04 1004.39 1004.82 1005.34 1005.94 1006.65 1007.47 1008.36 1009.31 1010.27 1011.20 1012.05 1012.81 1013.45 1014.01 1014.49 1014.93 1015.37 1015.83 1016.32 1016.85 1017.40 1017.95 1018.49 1019.00 1019.48 1019.94 1020.40 1020.87 1021.36 1021.90 1022.47 1023.06 1023.67 1024.26 1024.83 1025.34 1025.80 1026.21 1026.57 1026.90
1004.46 1004.53 1004.67 1004.88 1005.18 1005.57 1006.07 1006.69 1007.43 1008.27 1009.18 1010.11 1011.02 1011.87 1012.63 1013.29 1013.85 1014.34 1014.78 1015.21 1015.65 1016.13 1016.64 1017.18 1017.73 1018.29 1018.83 1019.35 1019.84 1020.32 1020.80 1021.28 1021.77 1022.28 1022.79 1023.31 1023.82 1024.31 1024.77 1025.21 1025.63 1026.03 1026.42
1005.76 1005.67 1005.65 1005.69 1005.82 1006.04 1006.40 1006.89 1007.52 1008.28 1009.12 1010.00 1010.89 1011.72 1012.48 1013.14 1013.71 1014.20 1014.64 1015.06 1015.49 1015.94 1016.43 1016.96 1017.50 1018.06 1018.62 1019.16 1019.69 1020.19 1020.68 1021.15 1021.62 1022.08 1022.54 1022.99 1023.43 1023.87 1024.30 1024.74 1025.18 1025.62 1026.05
1007.34 1007.09 1006.88 1006.73 1006.66 1006.71 1006.89 1007.23 1007.73 1008.37 1009.12 1009.93 1010.77 1011.58 1012.32 1012.98 1013.55 1014.05 1014.49 1014.91 1015.32 1015.76 1016.23 1016.73 1017.26 1017.82 1018.38 1018.93 1019.46 1019.98 1020.48 1020.95 1021.40 1021.84 1022.26 1022.67 1023.08 1023.50 1023.92 1024.37 1024.82 1025.30 1025.78
1009.08 1008.66 1008.26 1007.92 1007.66 1007.51 1007.51 1007.67 1008.02 1008.52 1009.16 1009.88 1010.65 1011.41 1012.13 1012.78 1013.36 1013.86 1014.31 1014.74 1015.15 1015.57 1016.02 1016.50 1017.02 1017.55 1018.09 1018.64 1019.18 1019.69 1020.19 1020.66 1021.10 1021.53 1021.94 1022.34 1022.74 1023.16 1023.59 1024.05 1024.53 1025.03 1025.54
1010.82 1010.25 1009.68 1009.16 1008.72 1008.39 1008.21 1008.21 1008.39 1008.74 1009.25 1009.86 1010.54 1011.23 1011.91 1012.54 1013.11 1013.63 1014.09 1014.53 1014.95 1015.37 1015.81 1016.27 1016.76 1017.27 1017.79 1018.31 1018.83 1019.34 1019.82 1020.29 1020.73 1021.15 1021.56 1021.96 1022.38 1022.80 1023.25 1023.72 1024.22 1024.74 1025.26
1012.46 1011.76 1011.06 1010.39 1009.80 1009.31 1008.98 1008.81 1008.84 1009.04 1009.40 1009.88 1010.45 1011.06 1011.68 1012.28 1012.84 1013.35 1013.83 1014.28 1014.72 1015.15 1015.59 1016.04 1016.51 1016.99 1017.48 1017.97 1018.46 1018.94 1019.41 1019.86 1020.30 1020.72 1021.13 1021.54 1021.96 1022.40 1022.86 1023.34 1023.84 1024.35 1024.86
1013.92 1013.13 1012.33 1011.57 1010.87 1010.27 1009.80 1009.50 1009.38 1009.43 1009.64 1009.99 1010.43 1010.93 1011.47 1012.02 1012.55 1013.06 1013.55 1014.02 1014.47 1014.92 1015.36 1015.81 1016.26 1016.72 1017.18 1017.64 1018.09 1018.54 1018.98 1019.42 1019.84 1020.25 1020.66 1021.07 1021.49 1021.92 1022.38 1022.84 1023.32 1023.81 1024.29
1015.19 1014.35 1013.52 1012.70 1011.94 1011.26 1010.71 1010.29 1010.04 1009.95 1010.02 1010.21 1010.51 1010.90 1011.34 1011.81 1012.30 1012.79 1013.28 1013.76 1014.23 1014.69 1015.14 1015.59 1016.03 1016.47 1016.90 1017.32 1017.74 1018.16 1018.57 1018.98 1019.38 1019.78 1020.17 1020.57 1020.97 1021.38 1021.81 1022.24 1022.68 1023.12 1023.54
1016.32 1015.48 1014.64 1013.82 1013.04 1012.32 1011.71 1011.21 1010.85 1010.63 1010.55 1010.60 1010.76 1011.01 1011.34 1011.72 1012.14 1012.60 1013.06 1013.54 1014.02 1014.49 1014.95 1015.40 1015.83 1016.25 1016.65 1017.04 1017.43 1017.81 1018.18 1018.56 1018.94 1019.31 1019.68 1020.06 1020.43 1020.80 1021.17 1021.55 1021.93 1022.31 1022.68
1017.38 1016.57 1015.76 1014.96 1014.19 1013.47 1012.82 1012.26 1011.81 1011.48 1011.27 1011.17 1011.18 1011.30 1011.50 1011.78 1012.13 1012.52 1012.95 1013.41 1013.88 1014.34 1014.80 1015.24 1015.66 1016.05 1016.43 1016.79 1017.14 1017.49 1017.84 1018.18 1018.53 1018.87 1019.22 1019.55 1019.88 1020.21 1020.52 1020.84 1021.15 1021.47 1021.78
1018.44 1017.68 1016.93 1016.17 1015.42 1014.71 1014.04 1013.44 1012.92 1012.49 1012.16 1011.94 1011.81 1011.79 1011.87 1012.04 1012.29 1012.61 1012.99 1013.40 1013.84 1014.28 1014.72 1015.14 1015.53 1015.90 1016.25 1016.58 1016.90 1017.21 1017.52 1017.84 1018.15 1018.47 1018.78 1019.08 1019.37 1019.64 1019.91 1020.16 1020.42 1020.68 1020.94
1019.55 1018.85 1018.14 1017.43 1016.72 1016.03 1015.36 1014.73 1014.15 1013.65 1013.22 1012.88 1012.64 1012.50 1012.45 1012.51 1012.66 1012.90 1013.20 1013.56 1013.94 1014.34 1014.73 1015.11 1015.46 1015.79 1016.10 1016.39 1016.67 1016.95 1017.23 1017.51 1017.80 1018.09 1018.37 1018.64 1018.89 1019.13 1019.36 1019.57 1019.79 1020.01 1020.24
1020.72 1020.07 1019.41 1018.74 1018.07 1017.39 1016.73 1016.08 1015.47 1014.91 1014.41 1013.98 1013.64 1013.39 1013.24 1013.19 1013.25 1013.39 1013.61 1013.88 1014.19 1014.52 1014.85 1015.17 1015.47 1015.74 1015.99 1016.23 1016.47 1016.70 1016.95 1017.20 1017.46 1017.72 1017.98 1018.22 1018.46 1018.68 1018.88 1019.08 1019.28 1019.49 1019.71
1021.90 1021.30 1020.68 1020.05 1019.40 1018.75 1018.09 1017.45 1016.82 1016.22 1015.67 1015.19 1014.77 1014.44 1014.20 1014.07 1014.03 1014.08 1014.20 1014.38 1014.61 1014.85 1015.10 1015.33 1015.55 1015.75 1015.93 1016.11 1016.28 1016.47 1016.66 1016.88 1017.10 1017.34 1017.58 1017.82 1018.05 1018.26 1018.47 1018.67 1018.88 1019.10 1019.33
1023.05 1022.48 1021.90 1021.29 1020.68 1020.05 1019.41 1018.78 1018.15 1017.55 1016.98 1016.45 1015.99 1015.60 1015.30 1015.08 1014.96 1014.92 1014.95 1015.03 1015.16 1015.30 1015.44 1015.58 1015.71 1015.82 1015.92 1016.02 1016.12 1016.24 1016.38 1016.55 1016.74 1016.95 1017.17 1017.39 1017.62 1017.85 1018.08 1018.30 1018.53 1018.77 1019.04
1024.11 1023.56 1023.00 1022.43 1021.84 1021.24 1020.64 1020.02 1019.42 1018.83 1018.26 1017.72 1017.24 1016.81 1016.46 1016.18 1015.98 1015.86 1015.79 1015.78 1015.80 1015.84 1015.88 1015.91 1015.94 1015.95 1015.96 1015.97 1016.00 1016.04 1016.12 1016.22 1016.37 1016.54 1016.73 1016.95 1017.18 1017.41 1017.66 1017.91 1018.17 1018.45 1018.74
1025.01 1024.49 1023.96 1023.42 1022.87 1022.31 1021.74 1021.16 1020.59 1020.02 1019.47 1018.94 1018.45 1018.01 1017.62 1017.29 1017.02 1016.82 1016.67 1016.56 1016.48 1016.42 1016.36 1016.30 1016.23 1016.15 1016.06 1015.99 1015.93 1015.89 1015.89 1015.93 1016.02 1016.14 1016.29 1016.48 1016.70 1016.93 1017.18 1017.45 1017.74 1018.04 1018.36
Thickness
5585 5588 5592 5594 5595 5597 5598 5599 5600 5600 5601 5601 5601 5602 5603 5605 5607 5608 5610 5611 5612 5612 5612 5611 5610 5610 5609 5608 5607 5605 5603 5600 5599 5596 5593 5592 5593 5594 5594 5595 5595 5595 5595
5572 5576 5579 5582 5584 5587 5588 5590 5591 5591 5592 5594 5594 5595 5596 5597 5599 5600 5601 5602 5603 5604 5604 5603 5603 5602 5601 5600 5599 5598 5594 5592 5592 5589 5584 5581 5581 5583 5584 5584 5585 5585 5585
5561 5564 5567 5569 5572 5575 5577 5580 5581 5582 5583 5584 5584 5585 5585 5586 5588 5589 5592 5594 5595 5595 5595 5595 5594 5594 5594 5593 5592 5591 5589 5585 5583 5583 5580 5575 5573 5571 5572 5573 5574 5574 5575
5548 5551 5554 5556 5559 5563 5566 5568 5570 5572 5573 5574 5575 5576 5577 5578 5580 5581 5583 5585 5586 5587 5587 5587 5586 5586 5586 5585 5584 5583 5582 5580 5576 5574 5573 5572 5569 5564 5562 5563 5563 5564 5564
5535 5538 5542 5545 5548 5551 5554 5557 5559 5561 5562 5564 5566 5567 5568 5570 5571 5572 5573 5575 5576 5577 5578 5578 5578 5578 5577 5577 5576 5575 5575 5573 5571 5568 5566 5563 5561 5559 5557 5555 5553 5553 5554
5521 5525 5528 5532 5535 5538 5541 5545 5547 5549 5551 5554 5555 5557 5559 5560 5561 5562 5564 5565 5567 5568 5568 5569 5569 5569 5569 5569 5568 5567 5566 5565 5564 5562 5561 5559 5556 5552 5550 5547 5545 5543 5544
5506 5510 5513 5517 5521 5525 5529 5533 5536 5538 5540 5543 5545 5547 5549 5550 5552 5554 5555 5556 5557 5558 5559 5560 5560 5560 5561 5560 5560 5559 5558 5557 5556 5555 5554 5553 5551 5549 5545 5541 5536 5534 5534
5491 5495 5499 5503 5507 5512 5515 5519 5524 5527 5529 5532 5534 5537 5539 5541 5543 5545 5546 5547 5549 5550 5551 5551 5552 5552 5552 5552 5551 5550 5549 5548 5548 5547 5546 5544 5543 5542 5540 5536 5531 5526 5525
5477 5480 5484 5489 5493 5498 5502 5506 5511 5515 5518 5520 5523 5525 5528 5531 5533 5535 5537 5538 5539 5540 5541 5542 5543 5543 5543 5543 5543 5542 5541 5540 5539 5538 5537 5536 5535 5534 5532 5531 5528 5524 5519
5461 5465 5469 5474 5478 5483 5487 5492 5497 5501 5505 5508 5511 5515 5518 5521 5523 5524 5527 5529 5530 5531 5531 5532 5533 5533 5534 5534 5534 5533 5532 5531 5530 5530 5529 5528 5527 5526 5524 5522 5520 5519 5516
5445 5450 5455 5459 5464 5469 5473 5478 5483 5487 5491 5496 5500 5503 5507 5510 5512 5514 5516 5519 5520 5521 5521 5522 5523 5524 5524 5525 5524 5524 5524 5523 5522 5522 5521 5520 5519 5517 5516 5514 5512 5510 5508
5431 5435 5440 5445 5450 5455 5459 5464 5469 5474 5479 5483 5488 5492 5496 5499 5502 5504 5506 5508 5510 5511 5512 5512 5514 5515 5516 5516 5516 5516 5515 5515 5514 5514 5513 5512 5511 5509 5507 5505 5503 5501 5499
5417 5421 5426 5431 5436 5441 5446 5451 5456 5461 5466 5471 5476 5481 5485 5489 5491 5494 5496 5498 5500 5502 5503 5503 5504 5506 5506 5507 5507 5507 5507 5506 5506 5506 5505 5504 5502 5500 5498 5497 5495 5493 5491
5404 5408 5411 5416 5422 5427 5432 5438 5444 5449 5454 5459 5465 5469 5474 5478 5481 5483 5486 5488 5490 5492 5493 5494 5495 5497 5497 5497 5498 5498 5497 5497 5497 5496 5496 5496 5495 5493 5491 5489 5486 5484 5481
5392 5395 5398 5403 5409 5415 5420 5426 5432 5437 5442 5448 5453 5458 5463 5467 5470 5473 5475 5477 5479 5482 5483 5484 5485 5486 5487 5488 5488 5489 5488 5488 5487 5487 5487 5487 5486 5485 5483 5481 5478 5475 5472
5379 5383 5387 5392 5397 5402 5408 5414 5420 5426 5431 5437 5441 5446 5451 5455 5458 5461 5464 5466 5468 5470 5472 5473 5475 5476 5478 5479 5480 5480 5479 5479 5478 5478 5477 5477 5477 5476 5474 5473 5471 5468 5465
5367 5371 5375 5380 5385 5390 5396 5402 5409 5415 5421 5425 5430 5434 5439 5443 5446 5450 5453 5455 5457 5459 5461 5463 5465 5466 5469 5470 5470 5470 5470 5469 5469 5469 5469 5468 5467 5466 5464 5463 5460 5458 5456
5357 5360 5364 5369 5374 5379 5385 5392 5398 5404 5409 5414 5419 5422 5426 5430 5434 5437 5441 5443 5446 5449 5452 5454 5455 5457 5459 5460 5461 5460 5460 5459 5459 5460 5459 5458 5457 5456 5455 5453 5450 5448 5446
5347 5350 5354 5359 5364 5369 5375 5381 5387 5393 5398 5403 5407 5411 5415 5419 5423 5426 5429 5432 5435 5438 5441 5443 5445 5447 5448 5450 5451 5451 5450 5449 5450 5450 5450 5449 5448 5448 5446 5443 5440 5438 5436
5339 5342 5346 5350 5355 5359 5365 5371 5376 5381 5386 5390 5396 5400 5404 5407 5411 5414 5417 5421 5424 5427 5430 5432 5434 5436 5437 5440 5441 5441 5441 5440 5441 5441 5440 5440 5439 5438 5436 5434 5432 5429 5427
5331 5335 5338 5341 5346 5350 5356 5361 5366 5370 5374 5379 5385 5389 5393 5397 5400 5402 5406 5410 5413 5416 5418 5420 5422 5424 5427 5429 5431 5432 5432 5432 5431 5431 5430 5430 5430 5429 5427 5425 5423 5421 5418
5324 5327 5330 5333 5337 5341 5347 5351 5355 5359 5364 5368 5374 5378 5383 5386 5390 5392 5395 5398 5401 5404 5406 5408 5410 5412 5415 5417 5419 5421 5422 5422 5422 5422 5421 5421 5421 5420 5418 5416 5414 5412 5408
5315 5318 5321 5324 5328 5332 5336 5341 5345 5349 5353 5358 5362 5367 5371 5375 5379 5382 5385 5387 5390 5393 5395 5397 5399 5401 5403 5405 5407 5409 5411 5412 5412 5412 5412 5411 5411 5409 5408 5406 5404 5402 5398
5306 5309 5312 5315 5318 5322 5326 5330 5336 5340 5344 5347 5351 5355 5359 5363 5367 5370 5374 5377 5380 5382 5385 5386 5388 5389 5391 5392 5394 5396 5398 5400 5401 5401 5401 5401 5400 5399 5397 5396 5393 5392 5389
5297 5300 5302 5305 5309 5313 5316 5321 5325 5330 5334 5338 5341 5345 5348 5351 5355 5358 5362 5365 5368 5371 5373 5375 5377 5378 5380 5382 5384 5386 5387 5388 5390 5391 5390 5389 5389 5387 5385 5383 5382 5380 5378
5288 5291 5294 5297 5300 5303 5307 5310 5314 5319 5323 5327 5330 5333 5337 5340 5343 5346 5350 5354 5357 5360 5362 5364 5366 5368 5370 5372 5375 5377 5378 5379 5380 5380 5379 5378 5377 5376 5374 5373 5370 5368 5367